Year,Month,Day,Hour,Minute,Value (Times are PST for temperature in C)
2013,05,01,00,00,4.70
2013,05,01,00,01,4.70
2013,05,01,00,02,4.60
2013,05,01,00,03,4.60
2013,05,01,00,04,4.60
2013,05,01,00,05,4.60
2013,05,01,00,06,4.50
2013,05,01,00,07,4.50
2013,05,01,00,08,4.50
2013,05,01,00,09,4.40
2013,05,01,00,10,4.40
2013,05,01,00,11,4.40
2013,05,01,00,12,4.40
2013,05,01,00,13,4.30
2013,05,01,00,14,4.30
2013,05,01,00,15,4.30
2013,05,01,00,16,4.30
2013,05,01,00,17,4.30
2013,05,01,00,18,4.30
2013,05,01,00,19,4.20
2013,05,01,00,20,4.20
2013,05,01,00,21,4.20
2013,05,01,00,22,4.20
2013,05,01,00,23,4.20
2013,05,01,00,24,4.20
2013,05,01,00,25,4.20
2013,05,01,00,26,4.20
2013,05,01,00,27,4.20
2013,05,01,00,28,4.20
2013,05,01,00,29,4.10
2013,05,01,00,30,4.10
2013,05,01,00,31,4.10
2013,05,01,00,32,4.10
2013,05,01,00,33,4.10
2013,05,01,00,34,4.10
2013,05,01,00,35,4.20
2013,05,01,00,36,4.20
2013,05,01,00,37,4.20
2013,05,01,00,38,4.20
2013,05,01,00,39,4.20
2013,05,01,00,40,4.20
2013,05,01,00,41,4.20
2013,05,01,00,42,4.20
2013,05,01,00,43,4.20
2013,05,01,00,44,4.10
2013,05,01,00,45,4.10
2013,05,01,00,46,4.10
2013,05,01,00,47,4.10
2013,05,01,00,48,4.10
2013,05,01,00,49,4.10
2013,05,01,00,50,4.00
2013,05,01,00,51,4.00
2013,05,01,00,52,4.00
2013,05,01,00,53,4.00
2013,05,01,00,54,4.00
2013,05,01,00,55,4.00
2013,05,01,00,56,4.00
2013,05,01,00,57,4.00
2013,05,01,00,58,4.00
2013,05,01,00,59,4.00
2013,05,01,01,00,4.00
2013,05,01,01,01,4.00
2013,05,01,01,02,4.00
2013,05,01,01,03,4.00
2013,05,01,01,04,4.00
2013,05,01,01,05,4.00
2013,05,01,01,06,4.00
2013,05,01,01,07,4.10
2013,05,01,01,08,4.00
2013,05,01,01,09,4.10
2013,05,01,01,10,4.00
2013,05,01,01,11,4.00
2013,05,01,01,12,4.00
2013,05,01,01,13,4.00
2013,05,01,01,14,3.90
2013,05,01,01,15,4.00
2013,05,01,01,16,4.00
2013,05,01,01,17,4.00
2013,05,01,01,18,3.90
2013,05,01,01,19,3.90
2013,05,01,01,20,3.90
2013,05,01,01,21,3.90
2013,05,01,01,22,3.90
2013,05,01,01,23,3.90
2013,05,01,01,24,3.80
2013,05,01,01,25,3.80
2013,05,01,01,26,3.80
2013,05,01,01,27,3.80
2013,05,01,01,28,3.80
2013,05,01,01,29,3.80
2013,05,01,01,30,3.80
2013,05,01,01,31,3.80
2013,05,01,01,32,3.80
2013,05,01,01,33,3.80
2013,05,01,01,34,3.80
2013,05,01,01,35,3.80
2013,05,01,01,36,3.80
2013,05,01,01,37,3.80
2013,05,01,01,38,3.80
2013,05,01,01,39,3.80
2013,05,01,01,40,3.80
2013,05,01,01,41,3.80
2013,05,01,01,42,3.80
2013,05,01,01,43,3.80
2013,05,01,01,44,3.80
2013,05,01,01,45,3.80
2013,05,01,01,46,3.70
2013,05,01,01,47,3.70
2013,05,01,01,48,3.70
2013,05,01,01,49,3.70
2013,05,01,01,50,3.70
2013,05,01,01,51,3.70
2013,05,01,01,52,3.60
2013,05,01,01,53,3.60
2013,05,01,01,54,3.60
2013,05,01,01,55,3.60
2013,05,01,01,56,3.50
2013,05,01,01,57,3.50
2013,05,01,01,58,3.50
2013,05,01,01,59,3.50
2013,05,01,02,00,3.50
2013,05,01,02,01,3.50
2013,05,01,02,02,3.50
2013,05,01,02,03,3.50
2013,05,01,02,04,3.50
2013,05,01,02,05,3.50
2013,05,01,02,06,3.40
2013,05,01,02,07,3.40
2013,05,01,02,08,3.40
2013,05,01,02,09,3.40
2013,05,01,02,10,3.40
2013,05,01,02,11,3.40
2013,05,01,02,12,3.40
2013,05,01,02,13,3.40
2013,05,01,02,14,3.40
2013,05,01,02,15,3.40
2013,05,01,02,16,3.30
2013,05,01,02,17,3.30
2013,05,01,02,18,3.30
2013,05,01,02,19,3.30
2013,05,01,02,20,3.30
2013,05,01,02,21,3.30
2013,05,01,02,22,3.30
2013,05,01,02,23,3.30
2013,05,01,02,24,3.20
2013,05,01,02,25,3.20
2013,05,01,02,26,3.20
2013,05,01,02,27,3.20
2013,05,01,02,28,3.20
2013,05,01,02,29,3.10
2013,05,01,02,30,3.10
2013,05,01,02,31,3.10
2013,05,01,02,32,3.10
2013,05,01,02,33,3.00
2013,05,01,02,34,3.00
2013,05,01,02,35,3.00
2013,05,01,02,36,3.00
2013,05,01,02,37,3.00
2013,05,01,02,38,3.00
2013,05,01,02,39,3.00
2013,05,01,02,40,3.00
2013,05,01,02,41,3.00
2013,05,01,02,42,3.00
2013,05,01,02,43,3.00
2013,05,01,02,44,3.00
2013,05,01,02,45,3.00
2013,05,01,02,46,3.00
2013,05,01,02,47,3.00
2013,05,01,02,48,3.00
2013,05,01,02,49,3.00
2013,05,01,02,50,3.00
2013,05,01,02,51,2.90
2013,05,01,02,52,2.90
2013,05,01,02,53,2.90
2013,05,01,02,54,2.90
2013,05,01,02,55,2.90
2013,05,01,02,56,2.90
2013,05,01,02,57,2.90
2013,05,01,02,58,2.90
2013,05,01,02,59,2.90
2013,05,01,03,00,2.90
2013,05,01,03,01,2.80
2013,05,01,03,02,2.80
2013,05,01,03,03,2.80
2013,05,01,03,06,2.70
2013,05,01,03,07,2.70
2013,05,01,03,08,2.70
2013,05,01,03,09,2.70
2013,05,01,03,10,2.70
2013,05,01,03,11,2.70
2013,05,01,03,12,2.70
2013,05,01,03,13,2.70
2013,05,01,03,14,2.70
2013,05,01,03,15,2.70
2013,05,01,03,16,2.70
2013,05,01,03,17,2.60
2013,05,01,03,18,2.60
2013,05,01,03,19,2.60
2013,05,01,03,20,2.60
2013,05,01,03,21,2.60
2013,05,01,03,22,2.60
2013,05,01,03,23,2.60
2013,05,01,03,24,2.60
2013,05,01,03,25,2.60
2013,05,01,03,26,2.50
2013,05,01,03,27,2.50
2013,05,01,03,28,2.50
2013,05,01,03,29,2.50
2013,05,01,03,30,2.50
2013,05,01,03,31,2.50
2013,05,01,03,32,2.50
2013,05,01,03,33,2.40
2013,05,01,03,34,2.40
2013,05,01,03,35,2.40
2013,05,01,03,36,2.40
2013,05,01,03,37,2.40
2013,05,01,03,38,2.40
2013,05,01,03,39,2.40
2013,05,01,03,40,2.40
2013,05,01,03,41,2.40
2013,05,01,03,42,2.30
2013,05,01,03,43,2.30
2013,05,01,03,44,2.30
2013,05,01,03,45,2.30
2013,05,01,03,46,2.30
2013,05,01,03,47,2.20
2013,05,01,03,48,2.20
2013,05,01,03,49,2.20
2013,05,01,03,50,2.20
2013,05,01,03,51,2.20
2013,05,01,03,52,2.20
2013,05,01,03,53,2.20
2013,05,01,03,54,2.20
2013,05,01,03,55,2.20
2013,05,01,03,56,2.20
2013,05,01,03,57,2.10
2013,05,01,03,58,2.10
2013,05,01,03,59,2.10
2013,05,01,04,00,2.10
2013,05,01,04,01,2.10
2013,05,01,04,02,2.10
2013,05,01,04,03,2.10
2013,05,01,04,04,2.10
2013,05,01,04,05,2.00
2013,05,01,04,06,2.00
2013,05,01,04,07,2.00
2013,05,01,04,08,2.00
2013,05,01,04,09,2.00
2013,05,01,04,10,2.00
2013,05,01,04,11,2.00
2013,05,01,04,12,2.00
2013,05,01,04,13,2.00
2013,05,01,04,14,2.00
2013,05,01,04,15,1.90
2013,05,01,04,16,1.90
2013,05,01,04,17,1.90
2013,05,01,04,18,1.90
2013,05,01,04,19,1.90
2013,05,01,04,20,1.90
2013,05,01,04,21,1.90
2013,05,01,04,22,1.90
2013,05,01,04,23,1.80
2013,05,01,04,24,1.80
2013,05,01,04,25,1.80
2013,05,01,04,26,1.80
2013,05,01,04,27,1.80
2013,05,01,04,28,1.80
2013,05,01,04,29,1.80
2013,05,01,04,30,1.80
2013,05,01,04,31,1.80
2013,05,01,04,32,1.80
2013,05,01,04,33,1.80
2013,05,01,04,34,1.80
2013,05,01,04,35,1.80
2013,05,01,04,36,1.80
2013,05,01,04,37,1.80
2013,05,01,04,38,1.80
2013,05,01,04,39,1.80
2013,05,01,04,40,1.80
2013,05,01,04,41,1.70
2013,05,01,04,42,1.70
2013,05,01,04,43,1.70
2013,05,01,04,44,1.70
2013,05,01,04,45,1.70
2013,05,01,04,46,1.70
2013,05,01,04,47,1.70
2013,05,01,04,48,1.60
2013,05,01,04,49,1.60
2013,05,01,04,50,1.60
2013,05,01,04,51,1.60
2013,05,01,04,52,1.60
2013,05,01,04,53,1.60
2013,05,01,04,54,1.60
2013,05,01,04,55,1.50
2013,05,01,04,56,1.50
2013,05,01,04,57,1.40
2013,05,01,04,58,1.40
2013,05,01,04,59,1.40
2013,05,01,05,00,1.40
2013,05,01,05,01,1.40
2013,05,01,05,02,1.40
2013,05,01,05,03,1.40
2013,05,01,05,04,1.40
2013,05,01,05,05,1.40
2013,05,01,05,06,1.40
2013,05,01,05,07,1.40
2013,05,01,05,08,1.40
2013,05,01,05,09,1.40
2013,05,01,05,10,1.40
2013,05,01,05,11,1.40
2013,05,01,05,12,1.40
2013,05,01,05,13,1.40
2013,05,01,05,14,1.40
2013,05,01,05,15,1.40
2013,05,01,05,16,1.30
2013,05,01,05,17,1.30
2013,05,01,05,18,1.30
2013,05,01,05,19,1.30
2013,05,01,05,20,1.30
2013,05,01,05,21,1.30
2013,05,01,05,22,1.20
2013,05,01,05,23,1.20
2013,05,01,05,24,1.20
2013,05,01,05,25,1.20
2013,05,01,05,26,1.20
2013,05,01,05,27,1.20
2013,05,01,05,28,1.20
2013,05,01,05,29,1.20
2013,05,01,05,30,1.10
2013,05,01,05,31,1.10
2013,05,01,05,32,1.10
2013,05,01,05,33,1.10
2013,05,01,05,34,1.10
2013,05,01,05,35,1.10
2013,05,01,05,36,1.10
2013,05,01,05,37,1.10
2013,05,01,05,38,1.10
2013,05,01,05,39,1.10
2013,05,01,05,40,1.10
2013,05,01,05,41,1.10
2013,05,01,05,42,1.10
2013,05,01,05,43,1.10
2013,05,01,05,44,1.10
2013,05,01,05,45,1.20
2013,05,01,05,46,1.20
2013,05,01,05,47,1.20
2013,05,01,05,48,1.20
2013,05,01,05,49,1.20
2013,05,01,05,50,1.20
2013,05,01,05,51,1.20
2013,05,01,05,52,1.20
2013,05,01,05,53,1.20
2013,05,01,05,54,1.20
2013,05,01,05,55,1.20
2013,05,01,05,56,1.20
2013,05,01,05,57,1.20
2013,05,01,05,58,1.20
2013,05,01,05,59,1.20
2013,05,01,06,00,1.20
2013,05,01,06,01,1.20
2013,05,01,06,02,1.20
2013,05,01,06,03,1.20
2013,05,01,06,04,1.20
2013,05,01,06,05,1.20
2013,05,01,06,06,1.20
2013,05,01,06,07,1.20
2013,05,01,06,08,1.20
2013,05,01,06,09,1.20
2013,05,01,06,10,1.20
2013,05,01,06,11,1.20
2013,05,01,06,12,1.20
2013,05,01,06,13,1.20
2013,05,01,06,14,1.20
2013,05,01,06,15,1.20
2013,05,01,06,16,1.20
2013,05,01,06,17,1.20
2013,05,01,06,18,1.20
2013,05,01,06,19,1.10
2013,05,01,06,20,1.10
2013,05,01,06,21,1.10
2013,05,01,06,22,1.10
2013,05,01,06,23,1.10
2013,05,01,06,24,1.10
2013,05,01,06,25,1.10
2013,05,01,06,26,1.10
2013,05,01,06,27,1.00
2013,05,01,06,28,1.00
2013,05,01,06,29,1.00
2013,05,01,06,30,1.00
2013,05,01,06,31,1.00
2013,05,01,06,32,1.00
2013,05,01,06,33,1.00
2013,05,01,06,34,1.00
2013,05,01,06,35,1.00
2013,05,01,06,36,1.00
2013,05,01,06,37,1.00
2013,05,01,06,38,1.00
2013,05,01,06,39,1.00
2013,05,01,06,40,1.00
2013,05,01,06,41,1.00
2013,05,01,06,42,1.00
2013,05,01,06,43,1.00
2013,05,01,06,44,1.00
2013,05,01,06,45,1.00
2013,05,01,06,46,1.10
2013,05,01,06,47,1.00
2013,05,01,06,48,1.10
2013,05,01,06,49,1.10
2013,05,01,06,50,1.10
2013,05,01,06,51,1.10
2013,05,01,06,52,1.10
2013,05,01,06,53,1.10
2013,05,01,06,54,1.10
2013,05,01,06,55,1.10
2013,05,01,06,56,1.10
2013,05,01,06,57,1.10
2013,05,01,06,58,1.10
2013,05,01,06,59,1.10
2013,05,01,07,00,1.10
2013,05,01,07,01,1.20
2013,05,01,07,02,1.20
2013,05,01,07,03,1.20
2013,05,01,07,04,1.20
2013,05,01,07,05,1.20
2013,05,01,07,06,1.20
2013,05,01,07,07,1.20
2013,05,01,07,08,1.20
2013,05,01,07,09,1.20
2013,05,01,07,10,1.30
2013,05,01,07,11,1.30
2013,05,01,07,12,1.40
2013,05,01,07,13,1.40
2013,05,01,07,14,1.50
2013,05,01,07,15,1.60
2013,05,01,07,16,1.60
2013,05,01,07,17,1.70
2013,05,01,07,18,1.80
2013,05,01,07,19,1.90
2013,05,01,07,20,2.10
2013,05,01,07,21,2.20
2013,05,01,07,22,2.30
2013,05,01,07,23,2.40
2013,05,01,07,24,2.50
2013,05,01,07,25,2.50
2013,05,01,07,26,2.60
2013,05,01,07,27,2.70
2013,05,01,07,28,2.70
2013,05,01,07,29,2.70
2013,05,01,07,30,2.80
2013,05,01,07,31,2.80
2013,05,01,07,32,2.80
2013,05,01,07,33,2.80
2013,05,01,07,34,2.80
2013,05,01,07,35,2.80
2013,05,01,07,36,2.80
2013,05,01,07,37,2.80
2013,05,01,07,38,2.90
2013,05,01,07,39,2.90
2013,05,01,07,40,3.00
2013,05,01,07,41,3.00
2013,05,01,07,42,3.10
2013,05,01,07,43,3.10
2013,05,01,07,44,3.20
2013,05,01,07,45,3.30
2013,05,01,07,46,3.30
2013,05,01,07,47,3.40
2013,05,01,07,48,3.50
2013,05,01,07,49,3.50
2013,05,01,07,50,3.60
2013,05,01,07,51,3.70
2013,05,01,07,52,3.70
2013,05,01,07,53,3.80
2013,05,01,07,54,3.80
2013,05,01,07,55,3.80
2013,05,01,07,56,3.80
2013,05,01,07,57,3.80
2013,05,01,07,58,3.80
2013,05,01,07,59,3.80
2013,05,01,08,00,3.90
2013,05,01,08,01,3.90
2013,05,01,08,02,4.00
2013,05,01,08,03,4.00
2013,05,01,08,04,4.00
2013,05,01,08,05,4.00
2013,05,01,08,06,4.10
2013,05,01,08,07,4.10
2013,05,01,08,08,4.10
2013,05,01,08,09,4.20
2013,05,01,08,10,4.20
2013,05,01,08,11,4.20
2013,05,01,08,12,4.30
2013,05,01,08,13,4.30
2013,05,01,08,14,4.30
2013,05,01,08,15,4.30
2013,05,01,08,16,4.40
2013,05,01,08,17,4.40
2013,05,01,08,18,4.40
2013,05,01,08,19,4.50
2013,05,01,08,20,4.60
2013,05,01,08,21,4.60
2013,05,01,08,22,4.70
2013,05,01,08,23,4.70
2013,05,01,08,24,4.70
2013,05,01,08,25,4.70
2013,05,01,08,26,4.70
2013,05,01,08,27,4.70
2013,05,01,08,28,4.70
2013,05,01,08,29,4.70
2013,05,01,08,30,4.70
2013,05,01,08,31,4.70
2013,05,01,08,32,4.70
2013,05,01,08,33,4.80
2013,05,01,08,34,4.80
2013,05,01,08,35,4.80
2013,05,01,08,36,4.90
2013,05,01,08,37,5.00
2013,05,01,08,38,5.10
2013,05,01,08,39,5.20
2013,05,01,08,40,5.30
2013,05,01,08,41,5.30
2013,05,01,08,42,5.40
2013,05,01,08,43,5.50
2013,05,01,08,44,5.60
2013,05,01,08,45,5.60
2013,05,01,08,46,5.60
2013,05,01,08,47,5.60
2013,05,01,08,48,5.60
2013,05,01,08,49,5.60
2013,05,01,08,50,5.60
2013,05,01,08,51,5.60
2013,05,01,08,52,5.60
2013,05,01,08,53,5.60
2013,05,01,08,54,5.60
2013,05,01,08,55,5.60
2013,05,01,08,56,5.70
2013,05,01,08,57,5.70
2013,05,01,08,58,5.70
2013,05,01,08,59,5.70
2013,05,01,09,00,5.70
2013,05,01,09,01,5.70
2013,05,01,09,02,5.70
2013,05,01,09,03,5.70
2013,05,01,09,04,5.70
2013,05,01,09,05,5.70
2013,05,01,09,06,5.70
2013,05,01,09,07,5.70
2013,05,01,09,08,5.80
2013,05,01,09,09,5.80
2013,05,01,09,10,5.80
2013,05,01,09,11,5.80
2013,05,01,09,12,5.90
2013,05,01,09,13,6.00
2013,05,01,09,14,6.00
2013,05,01,09,15,6.10
2013,05,01,09,16,6.20
2013,05,01,09,17,6.20
2013,05,01,09,18,6.20
2013,05,01,09,19,6.20
2013,05,01,09,20,6.20
2013,05,01,09,21,6.20
2013,05,01,09,22,6.20
2013,05,01,09,23,6.20
2013,05,01,09,24,6.20
2013,05,01,09,25,6.20
2013,05,01,09,26,6.30
2013,05,01,09,27,6.30
2013,05,01,09,28,6.40
2013,05,01,09,29,6.40
2013,05,01,09,30,6.40
2013,05,01,09,31,6.40
2013,05,01,09,32,6.50
2013,05,01,09,33,6.50
2013,05,01,09,34,6.60
2013,05,01,09,35,6.70
2013,05,01,09,36,6.80
2013,05,01,09,37,7.00
2013,05,01,09,38,7.10
2013,05,01,09,39,7.20
2013,05,01,09,40,7.20
2013,05,01,09,41,7.30
2013,05,01,09,42,7.40
2013,05,01,09,43,7.40
2013,05,01,09,44,7.50
2013,05,01,09,45,7.50
2013,05,01,09,46,7.60
2013,05,01,09,47,7.60
2013,05,01,09,48,7.60
2013,05,01,09,49,7.60
2013,05,01,09,50,7.60
2013,05,01,09,51,7.60
2013,05,01,09,52,7.60
2013,05,01,09,53,7.70
2013,05,01,09,54,7.70
2013,05,01,09,55,7.70
2013,05,01,09,56,7.80
2013,05,01,09,57,7.80
2013,05,01,09,58,7.80
2013,05,01,09,59,7.80
2013,05,01,10,00,7.80
2013,05,01,10,01,7.90
2013,05,01,10,02,7.90
2013,05,01,10,03,8.00
2013,05,01,10,04,8.00
2013,05,01,10,05,8.10
2013,05,01,10,06,8.10
2013,05,01,10,07,8.10
2013,05,01,10,08,8.20
2013,05,01,10,09,8.20
2013,05,01,10,10,8.30
2013,05,01,10,11,8.40
2013,05,01,10,12,8.50
2013,05,01,10,13,8.50
2013,05,01,10,14,8.50
2013,05,01,10,15,8.40
2013,05,01,10,16,8.40
2013,05,01,10,17,8.40
2013,05,01,10,18,8.40
2013,05,01,10,19,8.50
2013,05,01,10,20,8.50
2013,05,01,10,21,8.60
2013,05,01,10,22,8.70
2013,05,01,10,23,8.80
2013,05,01,10,24,8.80
2013,05,01,10,25,8.80
2013,05,01,10,26,8.80
2013,05,01,10,27,8.80
2013,05,01,10,28,8.80
2013,05,01,10,29,8.80
2013,05,01,10,30,8.80
2013,05,01,10,31,8.80
2013,05,01,10,32,8.80
2013,05,01,10,33,8.90
2013,05,01,10,34,8.90
2013,05,01,10,35,9.00
2013,05,01,10,36,9.20
2013,05,01,10,37,9.20
2013,05,01,10,38,9.30
2013,05,01,10,39,9.40
2013,05,01,10,40,9.40
2013,05,01,10,41,9.50
2013,05,01,10,42,9.60
2013,05,01,10,43,9.70
2013,05,01,10,44,9.70
2013,05,01,10,45,9.70
2013,05,01,10,46,9.80
2013,05,01,10,47,9.90
2013,05,01,10,48,9.90
2013,05,01,10,49,10.00
2013,05,01,10,50,10.10
2013,05,01,10,51,10.20
2013,05,01,10,52,10.20
2013,05,01,10,53,10.20
2013,05,01,10,54,10.20
2013,05,01,10,55,10.20
2013,05,01,10,56,10.20
2013,05,01,10,57,10.30
2013,05,01,10,58,10.30
2013,05,01,10,59,10.40
2013,05,01,11,00,10.40
2013,05,01,11,01,10.50
2013,05,01,11,02,10.60
2013,05,01,11,03,10.60
2013,05,01,11,04,10.60
2013,05,01,11,05,10.70
2013,05,01,11,06,10.70
2013,05,01,11,07,10.80
2013,05,01,11,08,10.90
2013,05,01,11,09,11.00
2013,05,01,11,10,11.10
2013,05,01,11,11,11.20
2013,05,01,11,12,11.20
2013,05,01,11,13,11.20
2013,05,01,11,14,11.30
2013,05,01,11,15,11.30
2013,05,01,11,16,11.40
2013,05,01,11,17,11.50
2013,05,01,11,18,11.50
2013,05,01,11,19,11.60
2013,05,01,11,20,11.60
2013,05,01,11,21,11.60
2013,05,01,11,22,11.60
2013,05,01,11,23,11.60
2013,05,01,11,24,11.60
2013,05,01,11,25,11.60
2013,05,01,11,26,11.70
2013,05,01,11,27,11.70
2013,05,01,11,28,11.80
2013,05,01,11,29,11.80
2013,05,01,11,30,11.80
2013,05,01,11,31,11.80
2013,05,01,11,32,11.80
2013,05,01,11,33,11.70
2013,05,01,11,34,11.70
2013,05,01,11,35,11.80
2013,05,01,11,36,11.80
2013,05,01,11,37,11.80
2013,05,01,11,38,11.80
2013,05,01,11,39,11.90
2013,05,01,11,40,12.00
2013,05,01,11,41,12.20
2013,05,01,11,42,12.30
2013,05,01,11,43,12.30
2013,05,01,11,44,12.40
2013,05,01,11,45,12.50
2013,05,01,11,46,12.60
2013,05,01,11,47,12.70
2013,05,01,11,48,12.70
2013,05,01,11,49,12.80
2013,05,01,11,50,12.80
2013,05,01,11,51,12.80
2013,05,01,11,52,12.80
2013,05,01,11,53,12.80
2013,05,01,11,54,12.80
2013,05,01,11,55,12.70
2013,05,01,11,56,12.70
2013,05,01,11,57,12.60
2013,05,01,11,58,12.60
2013,05,01,11,59,12.60
2013,05,01,12,00,12.70
2013,05,01,12,01,12.90
2013,05,01,12,02,13.00
2013,05,01,12,03,13.10
2013,05,01,12,04,13.10
2013,05,01,12,05,13.20
2013,05,01,12,06,13.20
2013,05,01,12,07,13.20
2013,05,01,12,08,13.20
2013,05,01,12,09,13.20
2013,05,01,12,10,13.20
2013,05,01,12,11,13.10
2013,05,01,12,12,13.10
2013,05,01,12,13,13.10
2013,05,01,12,14,13.10
2013,05,01,12,15,13.10
2013,05,01,12,16,13.20
2013,05,01,12,17,13.20
2013,05,01,12,18,13.20
2013,05,01,12,19,13.30
2013,05,01,12,20,13.40
2013,05,01,12,21,13.50
2013,05,01,12,22,13.60
2013,05,01,12,23,13.60
2013,05,01,12,24,13.70
2013,05,01,12,25,13.70
2013,05,01,12,26,13.80
2013,05,01,12,27,13.70
2013,05,01,12,28,13.80
2013,05,01,12,29,13.80
2013,05,01,12,30,13.80
2013,05,01,12,31,13.90
2013,05,01,12,32,13.90
2013,05,01,12,33,13.90
2013,05,01,12,34,13.90
2013,05,01,12,35,13.90
2013,05,01,12,36,13.80
2013,05,01,12,37,13.80
2013,05,01,12,38,13.90
2013,05,01,12,39,14.00
2013,05,01,12,40,14.10
2013,05,01,12,41,14.10
2013,05,01,12,42,14.10
2013,05,01,12,43,14.20
2013,05,01,12,44,14.20
2013,05,01,12,45,14.20
2013,05,01,12,46,14.30
2013,05,01,12,47,14.20
2013,05,01,12,48,14.20
2013,05,01,12,49,14.10
2013,05,01,12,50,14.10
2013,05,01,12,51,14.00
2013,05,01,12,52,14.00
2013,05,01,12,53,14.00
2013,05,01,12,54,14.10
2013,05,01,12,55,14.20
2013,05,01,12,56,14.30
2013,05,01,12,57,14.30
2013,05,01,12,58,14.30
2013,05,01,12,59,14.30
2013,05,01,13,00,14.30
2013,05,01,13,01,14.30
2013,05,01,13,02,14.30
2013,05,01,13,03,14.30
2013,05,01,13,04,14.30
2013,05,01,13,05,14.30
2013,05,01,13,06,14.30
2013,05,01,13,07,14.30
2013,05,01,13,08,14.40
2013,05,01,13,09,14.40
2013,05,01,13,10,14.50
2013,05,01,13,11,14.50
2013,05,01,13,12,14.60
2013,05,01,13,13,14.70
2013,05,01,13,14,14.90
2013,05,01,13,15,15.00
2013,05,01,13,16,15.00
2013,05,01,13,17,15.00
2013,05,01,13,18,15.00
2013,05,01,13,19,14.80
2013,05,01,13,20,14.70
2013,05,01,13,21,14.70
2013,05,01,13,22,14.70
2013,05,01,13,23,14.80
2013,05,01,13,24,14.90
2013,05,01,13,25,15.00
2013,05,01,13,26,15.10
2013,05,01,13,27,15.10
2013,05,01,13,28,15.20
2013,05,01,13,29,15.20
2013,05,01,13,30,15.30
2013,05,01,13,31,15.20
2013,05,01,13,32,15.20
2013,05,01,13,33,15.20
2013,05,01,13,34,15.20
2013,05,01,13,35,15.20
2013,05,01,13,36,15.30
2013,05,01,13,37,15.40
2013,05,01,13,38,15.50
2013,05,01,13,39,15.50
2013,05,01,13,40,15.60
2013,05,01,13,41,15.60
2013,05,01,13,42,15.70
2013,05,01,13,43,15.80
2013,05,01,13,44,15.80
2013,05,01,13,45,15.90
2013,05,01,13,46,15.90
2013,05,01,13,47,15.90
2013,05,01,13,48,15.90
2013,05,01,13,49,15.80
2013,05,01,13,50,15.60
2013,05,01,13,51,15.50
2013,05,01,13,52,15.50
2013,05,01,13,53,15.50
2013,05,01,13,54,15.50
2013,05,01,13,55,15.50
2013,05,01,13,56,15.50
2013,05,01,13,57,15.50
2013,05,01,13,58,15.50
2013,05,01,13,59,15.50
2013,05,01,14,00,15.60
2013,05,01,14,01,15.60
2013,05,01,14,02,15.50
2013,05,01,14,03,15.50
2013,05,01,14,04,15.60
2013,05,01,14,05,15.60
2013,05,01,14,06,15.60
2013,05,01,14,07,15.60
2013,05,01,14,08,15.70
2013,05,01,14,09,15.70
2013,05,01,14,10,15.70
2013,05,01,14,11,15.80
2013,05,01,14,12,15.70
2013,05,01,14,13,15.70
2013,05,01,14,14,15.60
2013,05,01,14,15,15.60
2013,05,01,14,16,15.60
2013,05,01,14,17,15.60
2013,05,01,14,18,15.50
2013,05,01,14,19,15.50
2013,05,01,14,20,15.60
2013,05,01,14,21,15.60
2013,05,01,14,22,15.60
2013,05,01,14,23,15.60
2013,05,01,14,24,15.60
2013,05,01,14,25,15.60
2013,05,01,14,26,15.70
2013,05,01,14,27,15.80
2013,05,01,14,28,15.90
2013,05,01,14,29,16.00
2013,05,01,14,30,16.10
2013,05,01,14,31,16.20
2013,05,01,14,32,16.30
2013,05,01,14,33,16.20
2013,05,01,14,34,16.20
2013,05,01,14,35,16.10
2013,05,01,14,36,16.10
2013,05,01,14,37,16.10
2013,05,01,14,38,16.10
2013,05,01,14,39,16.00
2013,05,01,14,40,15.90
2013,05,01,14,41,15.90
2013,05,01,14,42,15.90
2013,05,01,14,43,16.00
2013,05,01,14,44,16.00
2013,05,01,14,45,16.00
2013,05,01,14,46,16.00
2013,05,01,14,47,16.00
2013,05,01,14,48,16.00
2013,05,01,14,49,16.00
2013,05,01,14,50,16.10
2013,05,01,14,51,16.10
2013,05,01,14,52,16.10
2013,05,01,14,53,16.10
2013,05,01,14,54,16.10
2013,05,01,14,55,16.20
2013,05,01,14,56,16.20
2013,05,01,14,57,16.20
2013,05,01,14,58,16.20
2013,05,01,14,59,16.20
2013,05,01,15,00,16.30
2013,05,01,15,01,16.30
2013,05,01,15,02,16.40
2013,05,01,15,03,16.50
2013,05,01,15,04,16.60
2013,05,01,15,05,16.60
2013,05,01,15,06,16.60
2013,05,01,15,07,16.50
2013,05,01,15,08,16.50
2013,05,01,15,09,16.50
2013,05,01,15,10,16.60
2013,05,01,15,11,16.60
2013,05,01,15,12,16.60
2013,05,01,15,13,16.70
2013,05,01,15,14,16.60
2013,05,01,15,15,16.60
2013,05,01,15,16,16.70
2013,05,01,15,17,16.70
2013,05,01,15,18,16.70
2013,05,01,15,19,16.70
2013,05,01,15,20,16.80
2013,05,01,15,21,16.70
2013,05,01,15,22,16.70
2013,05,01,15,23,16.70
2013,05,01,15,24,16.70
2013,05,01,15,25,16.70
2013,05,01,15,26,16.70
2013,05,01,15,27,16.60
2013,05,01,15,28,16.60
2013,05,01,15,29,16.60
2013,05,01,15,30,16.60
2013,05,01,15,31,16.60
2013,05,01,15,32,16.60
2013,05,01,15,33,16.60
2013,05,01,15,34,16.60
2013,05,01,15,35,16.60
2013,05,01,15,36,16.60
2013,05,01,15,37,16.60
2013,05,01,15,38,16.60
2013,05,01,15,39,16.60
2013,05,01,15,40,16.50
2013,05,01,15,41,16.50
2013,05,01,15,42,16.40
2013,05,01,15,43,16.40
2013,05,01,15,44,16.30
2013,05,01,15,45,16.30
2013,05,01,15,46,16.30
2013,05,01,15,47,16.30
2013,05,01,15,48,16.20
2013,05,01,15,49,16.20
2013,05,01,15,50,16.20
2013,05,01,15,51,16.20
2013,05,01,15,52,16.20
2013,05,01,15,53,16.30
2013,05,01,15,54,16.30
2013,05,01,15,55,16.40
2013,05,01,15,56,16.40
2013,05,01,15,57,16.50
2013,05,01,15,58,16.60
2013,05,01,15,59,16.70
2013,05,01,16,00,16.70
2013,05,01,16,01,16.70
2013,05,01,16,02,16.70
2013,05,01,16,03,16.60
2013,05,01,16,04,16.60
2013,05,01,16,05,16.60
2013,05,01,16,06,16.60
2013,05,01,16,07,16.70
2013,05,01,16,08,16.70
2013,05,01,16,09,16.80
2013,05,01,16,10,16.70
2013,05,01,16,11,16.70
2013,05,01,16,12,16.70
2013,05,01,16,13,16.70
2013,05,01,16,14,16.70
2013,05,01,16,15,16.60
2013,05,01,16,16,16.60
2013,05,01,16,17,16.60
2013,05,01,16,18,16.60
2013,05,01,16,19,16.60
2013,05,01,16,20,16.60
2013,05,01,16,21,16.50
2013,05,01,16,22,16.50
2013,05,01,16,23,16.50
2013,05,01,16,24,16.50
2013,05,01,16,25,16.70
2013,05,01,16,26,16.80
2013,05,01,16,27,16.90
2013,05,01,16,28,17.00
2013,05,01,16,29,16.90
2013,05,01,16,30,16.90
2013,05,01,16,31,16.90
2013,05,01,16,32,16.90
2013,05,01,16,33,16.90
2013,05,01,16,34,17.00
2013,05,01,16,35,17.00
2013,05,01,16,36,17.00
2013,05,01,16,37,17.10
2013,05,01,16,38,17.10
2013,05,01,16,39,17.10
2013,05,01,16,40,17.10
2013,05,01,16,41,17.10
2013,05,01,16,42,17.10
2013,05,01,16,43,17.10
2013,05,01,16,44,17.10
2013,05,01,16,45,17.00
2013,05,01,16,46,16.90
2013,05,01,16,47,16.80
2013,05,01,16,48,16.90
2013,05,01,16,49,16.90
2013,05,01,16,50,16.90
2013,05,01,16,51,16.90
2013,05,01,16,52,17.00
2013,05,01,16,53,17.00
2013,05,01,16,54,17.00
2013,05,01,16,55,17.10
2013,05,01,16,56,17.00
2013,05,01,16,57,17.00
2013,05,01,16,58,17.00
2013,05,01,16,59,16.90
2013,05,01,17,00,16.90
2013,05,01,17,01,16.90
2013,05,01,17,02,16.90
2013,05,01,17,03,17.00
2013,05,01,17,04,17.00
2013,05,01,17,05,16.90
2013,05,01,17,06,16.90
2013,05,01,17,07,16.90
2013,05,01,17,08,17.00
2013,05,01,17,09,17.00
2013,05,01,17,10,17.00
2013,05,01,17,11,17.00
2013,05,01,17,12,17.00
2013,05,01,17,13,17.00
2013,05,01,17,14,17.00
2013,05,01,17,15,17.00
2013,05,01,17,16,17.00
2013,05,01,17,17,16.90
2013,05,01,17,18,16.90
2013,05,01,17,19,16.90
2013,05,01,17,20,16.90
2013,05,01,17,21,16.90
2013,05,01,17,22,16.90
2013,05,01,17,23,16.90
2013,05,01,17,24,16.90
2013,05,01,17,25,16.90
2013,05,01,17,26,16.90
2013,05,01,17,27,17.00
2013,05,01,17,28,17.00
2013,05,01,17,29,17.00
2013,05,01,17,30,17.10
2013,05,01,17,31,17.00
2013,05,01,17,32,16.90
2013,05,01,17,33,16.80
2013,05,01,17,34,16.70
2013,05,01,17,35,16.60
2013,05,01,17,36,16.60
2013,05,01,17,37,16.60
2013,05,01,17,38,16.60
2013,05,01,17,39,16.60
2013,05,01,17,40,16.60
2013,05,01,17,41,16.60
2013,05,01,17,42,16.60
2013,05,01,17,43,16.60
2013,05,01,17,44,16.50
2013,05,01,17,45,16.40
2013,05,01,17,46,16.30
2013,05,01,17,47,16.30
2013,05,01,17,48,16.30
2013,05,01,17,49,16.30